Flag for Liberia Weather past 2 weeks in Monrovia, Liberia

Now
81 °F

Partly sunny.


Feels Like: 86 °F
Forecast: 74 / 80 °F
Wind: 14 mph from South

Location: Roberts Field

Current Time: Aug 22, 2014 at 12:57:38 PM

Latest Report: Aug 22, 2014 at 12:30 PM


Visibility: N/A

Pressure: 30.01 "Hg

Humidity: 84%

Dew point: 75 °F

Location of MonroviaLocation

Historic Weather in Monrovia — Graph

°F

Monrovia temperature yesterday

Maximum temperature yesterday: 79 °F (at 11:00 AM)
Minimum temperature yesterday: 75 °F (at 7:30 AM)
Average temperature yesterday: 77 °F

Past Weeks' High & Low Weather Summary

 TemperatureHumidityPressure
High82 °F (Aug 15, 2:30 PM)100% (Aug 7, 1:30 PM)30.04 "Hg (Aug 7, 1:30 PM)
Low72 °F (Aug 18, 6:00 AM)74% (Aug 11, 4:30 PM)29.89 "Hg (Aug 8, 4:00 PM)
Average76 °F91%29.96 "Hg
* Reported Aug 7 11:00 AM — Aug 22 11:30 AM, Monrovia, Weather by CustomWeather, © 2014

Note: Actual official high and low records may vary slightly from our data, if they occured in-between our weather recording intervals... More about our weather records

Advertising

Monrovia weather history for previous 24 hours

 ConditionsComfort  
Time TempWeatherWind HumidityBarometerVisibility
11:30 AM
Aug 22
81 °FPartly sunny.15 mph84%30.01 "HgN/A
11:00 AM82 °FPartly sunny.16 mph79%30.01 "HgN/A
10:30 AM81 °FPartly sunny.13 mph79%30.01 "HgN/A
10:00 AM79 °FPartly sunny.12 mph84%30.01 "HgN/A
9:30 AM79 °FPartly sunny.8 mph84%30.01 "HgN/A
9:00 AM79 °FPartly sunny.12 mph84%30.01 "HgN/A
8:30 AM79 °FPartly sunny.6 mph84%30.01 "HgN/A
8:00 AM79 °FPartly sunny.7 mph84%29.98 "HgN/A
7:30 AM77 °FPassing clouds.7 mph89%29.98 "HgN/A
7:00 AM75 °FPassing clouds.6 mph94%29.98 "HgN/A
6:30 AM75 °FPassing clouds.6 mph94%29.95 "HgN/A
6:00 AM75 °FPassing clouds.5 mph94%29.95 "HgN/A
5:30 AM75 °FPassing clouds.5 mph94%29.95 "HgN/A
5:00 AM75 °FPassing clouds.8 mph94%29.95 "HgN/A
2:00 AM77 °FPassing clouds.9 mph83%29.95 "HgN/A
1:00 AM77 °FPassing clouds.7 mph83%29.98 "HgN/A
12:00 AM77 °FPassing clouds.8 mph83%30.01 "HgN/A
11:30 PM
Aug 21
77 °FPassing clouds.9 mph83%30.01 "HgN/A
11:00 PM77 °FPassing clouds.8 mph83%30.01 "HgN/A
10:30 PM77 °FPassing clouds.6 mph83%30.01 "HgN/A
10:00 PM77 °FPassing clouds.7 mph83%29.98 "HgN/A
9:30 PM77 °FPassing clouds.7 mph83%29.98 "HgN/A
9:00 PM77 °FPassing clouds.7 mph83%29.98 "HgN/A
8:00 PM77 °FPassing clouds.10 mph83%29.95 "HgN/A
7:30 PM77 °FRain. Partly sunny.12 mph83%29.95 "HgN/A
7:00 PM77 °FLight rain. Partly sunny.8 mph83%29.95 "Hg6 mi
6:30 PM77 °FLight rain. Partly sunny.12 mph83%29.92 "Hg5 mi
6:00 PM75 °FLight rain. Partly sunny.7 mph94%29.92 "Hg4 mi
5:30 PM75 °FLight rain. Partly sunny.9 mph94%29.92 "Hg4 mi
5:00 PM75 °FLight rain. Partly sunny.8 mph94%29.92 "Hg4 mi
4:30 PM75 °FLight rain. Broken clouds.10 mph94%29.92 "Hg4 mi
4:00 PM75 °FRain. Broken clouds.13 mph94%29.92 "Hg3 mi
3:30 PM75 °FHeavy rain. Mostly cloudy.12 mph94%29.92 "Hg2 mi
3:00 PM75 °FHeavy rain. Mostly cloudy.9 mph94%29.92 "Hg2 mi
2:30 PM75 °FHeavy rain. Mostly cloudy.20 mph94%29.92 "Hg2 mi
2:00 PM75 °FLight rain. Broken clouds.14 mph94%29.95 "Hg5 mi
1:30 PM79 °FPartly sunny.14 mph89%29.95 "Hg5 mi
1:00 PM77 °FPartly sunny.13 mph94%29.98 "HgN/A
12:30 PM79 °FPartly sunny.16 mph84%29.98 "HgN/A
12:00 PM79 °FPartly sunny.13 mph84%29.98 "HgN/A
Weather by CustomWeather, © 2014

See weather overviewHow to use our weather pages